| time (UTC) | temp C | wind direction | speed KPH | gust KPH | rain 1hr cm | rain 24hr cm | rain mn cm | humidity % | barometer mb |
| 20260905200107 | 22 | 71 | 1.6 | 6.4 | 0.00 | 0.00 | 0.00 | 46 | 1016.8 |
| 20260905200003 | 22 | 95 | 0.0 | 4.8 | 0.00 | 0.00 | 0.00 | 45 | 1016.8 |
| 20260905194502 | 22 | 192 | 3.2 | 6.4 | 0.00 | 0.00 | 0.00 | 46 | 1016.8 |
| 20260905193002 | 22 | 144 | 1.6 | 6.4 | 0.00 | 0.00 | 0.00 | 48 | 1016.8 |
| 20260905191500 | 22 | 240 | 3.2 | 6.4 | 0.00 | 0.00 | 0.00 | 49 | 1016.8 |
| 20260905190001 | 21 | 162 | 3.2 | 6.4 | 0.00 | 0.00 | 0.00 | 51 | 1016.7 |
| 20260905184506 | 21 | 198 | 4.8 | 8.0 | 0.00 | 0.00 | 0.00 | 51 | 1016.7 |
| 20260905183003 | 21 | 225 | 4.8 | 8.0 | 0.00 | 0.00 | 0.00 | 53 | 1016.5 |
| 20260905181501 | 21 | 260 | 3.2 | 8.0 | 0.00 | 0.00 | 0.00 | 53 | 1016.5 |
| 20260905180002 | 21 | 201 | 1.6 | 6.4 | 0.00 | 0.00 | 0.00 | 53 | 1016.5 |
| 20260905174501 | 21 | 150 | 1.6 | 12.9 | 0.00 | 0.00 | 0.00 | 53 | 1016.5 |
| 20260905173000 | 21 | 244 | 3.2 | 4.8 | 0.00 | 0.00 | 0.00 | 53 | 1016.4 |
| 20260905171501 | 21 | 165 | 3.2 | 6.4 | 0.00 | 0.00 | 0.00 | 53 | 1016.4 |
| 20260905170001 | 20 | 49 | 3.2 | 6.4 | 0.00 | 0.00 | 0.00 | 51 | 1016.4 |
| 20260905164504 | 19 | 81 | 0.0 | 6.4 | 0.00 | 0.00 | 0.00 | 58 | 1016.3 |
| 20260905163001 | 18 | 195 | 0.0 | 4.8 | 0.00 | 0.00 | 0.00 | 61 | 1016.3 |
| 20260905161502 | 17 | 204 | 0.0 | 3.2 | 0.00 | 0.00 | 0.00 | 66 | 1016.5 |
| 20260905160007 | 16 | 154 | 1.6 | 4.8 | 0.00 | 0.00 | 0.00 | 71 | 1016.4 |
| 20260905154501 | 16 | 213 | 0.0 | 3.2 | 0.00 | 0.00 | 0.00 | 77 | 1016.5 |
| 20260905153001 | 15 | 186 | 0.0 | 1.6 | 0.00 | 0.00 | 0.00 | 81 | 1016.5 |
| 20260905151502 | 13 | 186 | 0.0 | 1.6 | 0.00 | 0.00 | 0.00 | 82 | 1016.3 |
| 20260905150001 | 12 | 38 | 0.0 | 0.0 | 0.00 | 0.00 | 0.00 | 85 | 1016.4 |
| 20260905144559 | 10 | 27 | 0.0 | 0.0 | 0.00 | 0.00 | 0.00 | 90 | 1016.3 |
| 20260905143100 | 9 | 349 | 0.0 | 0.0 | 0.00 | 0.00 | 0.00 | 91 | 1016.3 |
| 20260905141601 | 9 | 349 | 0.0 | 0.0 | 0.00 | 0.00 | 0.00 | 91 | 1016.3 |
| 20260905134600 | 8 | 10 | 0.0 | 0.0 | 0.00 | 0.03 | 0.00 | 90 | 1016.0 |
| 20260905133101 | 9 | 6 | 0.0 | 0.0 | 0.00 | 0.03 | 0.00 | 90 | 1016.1 |
| 20260905131600 | 9 | 16 | 0.0 | 0.0 | 0.00 | 0.03 | 0.00 | 90 | 1016.0 |
| 20260905130059 | 9 | 35 | 0.0 | 0.0 | 0.00 | 0.03 | 0.00 | 89 | 1015.9 |
| 20260905130002 | 9 | 35 | 0.0 | 0.0 | 0.00 | 0.03 | 0.00 | 89 | 1015.9 |
| 20260905124501 | 9 | 35 | 0.0 | 0.0 | 0.00 | 0.03 | 0.00 | 90 | 1016.0 |
| 20260905123001 | 9 | 41 | 0.0 | 0.0 | 0.00 | 0.03 | 0.00 | 91 | 1016.0 |
| 20260905121501 | 9 | 25 | 0.0 | 0.0 | 0.00 | 0.03 | 0.00 | 92 | 1015.9 |
| 20260905120001 | 8 | 25 | 0.0 | 0.0 | 0.00 | 0.03 | 0.00 | 91 | 1016.0 |
| 20260905114600 | 8 | 25 | 0.0 | 0.0 | 0.00 | 0.05 | 0.00 | 91 | 1016.0 |
| 20260905113111 | 8 | 25 | 0.0 | 0.0 | 0.00 | 0.05 | 0.00 | 91 | 1016.0 |
| 20260905111600 | 8 | 25 | 0.0 | 0.0 | 0.00 | 0.05 | 0.00 | 90 | 1016.1 |
| 20260905110100 | 9 | 25 | 0.0 | 0.0 | 0.00 | 0.05 | 0.00 | 90 | 1016.0 |
| 20260905110003 | 9 | 25 | 0.0 | 0.0 | 0.00 | 0.05 | 0.00 | 90 | 1016.0 |
| 20260905104501 | 9 | 25 | 0.0 | 0.0 | 0.00 | 0.10 | 0.00 | 90 | 1016.1 |
| 20260905103004 | 9 | 25 | 0.0 | 0.0 | 0.00 | 0.10 | 0.00 | 89 | 1016.2 |
| 20260905101501 | 9 | 25 | 0.0 | 0.0 | 0.00 | 0.10 | 0.00 | 89 | 1016.2 |
| 20260905100002 | 10 | 25 | 0.0 | 0.0 | 0.00 | 0.23 | 0.00 | 88 | 1016.3 |
| 20260905094601 | 10 | 25 | 0.0 | 0.0 | 0.00 | 0.23 | 0.00 | 87 | 1016.3 |
| 20260905093100 | 10 | 25 | 0.0 | 0.0 | 0.00 | 0.23 | 0.00 | 87 | 1016.3 |
| 20260905091604 | 10 | 356 | 0.0 | 0.0 | 0.00 | 0.23 | 0.00 | 86 | 1016.2 |
| 20260905090103 | 10 | 356 | 0.0 | 0.0 | 0.00 | 0.23 | 0.00 | 85 | 1016.3 |
| 20260905084559 | 11 | 356 | 0.0 | 0.0 | 0.00 | 0.33 | 0.00 | 85 | 1016.3 |
| 20260905083059 | 11 | 356 | 0.0 | 1.6 | 0.00 | 0.33 | 0.00 | 84 | 1016.4 |
| 20260905081600 | 11 | 356 | 0.0 | 1.6 | 0.00 | 0.33 | 0.00 | 84 | 1016.4 |
| 20260905080059 | 11 | 356 | 0.0 | 3.2 | 0.00 | 0.33 | 0.00 | 83 | 1016.4 |
| 20260905080006 | 11 | 356 | 0.0 | 3.2 | 0.00 | 0.33 | 0.00 | 82 | 1016.4 |
| 20260905074503 | 11 | 356 | 0.0 | 3.2 | 0.00 | 0.38 | 0.00 | 82 | 1016.2 |
| 20260905073002 | 11 | 39 | 0.0 | 4.8 | 0.00 | 0.38 | 0.00 | 82 | 1016.1 |
| 20260905071503 | 12 | 23 | 0.0 | 0.0 | 0.00 | 0.38 | 0.00 | 82 | 1016.2 |
| 20260905070005 | 12 | 25 | 0.0 | 0.0 | 0.00 | 0.43 | 0.38 | 82 | 1016.2 |
| 20260905064502 | 12 | 54 | 0.0 | 1.6 | 0.00 | 0.43 | 0.38 | 81 | 1016.1 |
| 20260905063002 | 12 | 33 | 0.0 | 0.0 | 0.00 | 0.43 | 0.38 | 81 | 1016.2 |
| 20260905061502 | 12 | 48 | 0.0 | 0.0 | 0.00 | 0.43 | 0.38 | 80 | 1016.2 |
| 20260905060002 | 12 | 48 | 0.0 | 3.2 | 0.00 | 0.71 | 0.38 | 80 | 1016.3 |
| 20260905054502 | 13 | 54 | 0.0 | 1.6 | 0.00 | 0.71 | 0.38 | 79 | 1016.3 |
| 20260905053002 | 13 | 54 | 0.0 | 3.2 | 0.00 | 0.71 | 0.38 | 77 | 1016.2 |
| 20260905051501 | 13 | 52 | 0.0 | 0.0 | 0.00 | 0.71 | 0.38 | 76 | 1016.3 |
| 20260905050003 | 13 | 66 | 0.0 | 0.0 | 0.00 | 0.84 | 0.38 | 77 | 1016.3 |
| 20260905044502 | 13 | 31 | 0.0 | 3.2 | 0.00 | 0.84 | 0.38 | 78 | 1016.1 |
| 20260905043002 | 13 | 64 | 1.6 | 3.2 | 0.00 | 0.84 | 0.38 | 79 | 1016.1 |
| 20260905041502 | 13 | 108 | 0.0 | 1.6 | 0.00 | 0.84 | 0.38 | 77 | 1015.9 |
| 20260905040004 | 14 | 108 | 0.0 | 1.6 | 0.00 | 0.86 | 0.38 | 76 | 1015.7 |
| 20260905034501 | 15 | 108 | 0.0 | 1.6 | 0.00 | 0.86 | 0.38 | 74 | 1015.6 |
| 20260905033002 | 15 | 152 | 0.0 | 0.0 | 0.00 | 0.86 | 0.38 | 71 | 1015.4 |
| 20260905031502 | 16 | 185 | 0.0 | 0.0 | 0.00 | 0.86 | 0.38 | 69 | 1015.5 |
| 20260905030005 | 17 | 185 | 0.0 | 0.0 | 0.00 | 0.86 | 0.38 | 63 | 1015.2 |
| 20260905024502 | 17 | 185 | 0.0 | 0.0 | 0.00 | 0.86 | 0.38 | 60 | 1015.1 |
| 20260905023004 | 19 | 185 | 0.0 | 0.0 | 0.00 | 0.86 | 0.38 | 56 | 1014.9 |
| 20260905021502 | 20 | 185 | 0.0 | 1.6 | 0.00 | 0.86 | 0.38 | 55 | 1014.9 |
| 20260905020003 | 20 | 185 | 0.0 | 3.2 | 0.00 | 0.86 | 0.38 | 50 | 1014.9 |
| 20260905014501 | 21 | 169 | 1.6 | 4.8 | 0.00 | 0.86 | 0.38 | 45 | 1014.9 |
| 20260905013001 | 21 | 211 | 1.6 | 3.2 | 0.00 | 0.86 | 0.38 | 44 | 1014.7 |
| 20260905011501 | 21 | 175 | 0.0 | 4.8 | 0.00 | 0.86 | 0.38 | 43 | 1014.6 |
| 20260905010004 | 21 | 17 | 1.6 | 4.8 | 0.00 | 0.86 | 0.38 | 43 | 1014.7 |
| 20260905004502 | 21 | 153 | 1.6 | 4.8 | 0.00 | 0.86 | 0.38 | 45 | 1014.6 |
| 20260905003001 | 21 | 266 | 1.6 | 8.0 | 0.00 | 0.86 | 0.38 | 46 | 1014.7 |
| 20260905001500 | 22 | 56 | 1.6 | 4.8 | 0.00 | 0.86 | 0.38 | 45 | 1014.7 |
| 20260905000004 | 22 | 130 | 3.2 | 6.4 | 0.00 | 0.86 | 0.38 | 46 | 1014.8 |
| 20260904234501 | 22 | 225 | 1.6 | 6.4 | 0.00 | 0.86 | 0.38 | 45 | 1015.0 |
| 20260904233003 | 22 | 153 | 3.2 | 9.7 | 0.00 | 0.86 | 0.38 | 47 | 1015.2 |
| 20260904231502 | 21 | 235 | 3.2 | 8.0 | 0.00 | 0.86 | 0.38 | 46 | 1015.2 |
| 20260904230003 | 22 | 175 | 3.2 | 8.0 | 0.00 | 0.86 | 0.38 | 48 | 1015.3 |
| 20260904224501 | 22 | 120 | 1.6 | 8.0 | 0.00 | 0.86 | 0.38 | 46 | 1015.3 |
| 20260904223002 | 22 | 156 | 3.2 | 11.3 | 0.00 | 0.86 | 0.38 | 49 | 1015.5 |
| 20260904221502 | 22 | 155 | 1.6 | 11.3 | 0.00 | 0.86 | 0.38 | 51 | 1015.4 |
| 20260904220000 | 21 | 151 | 0.0 | 6.4 | 0.00 | 0.86 | 0.38 | 53 | 1015.6 |
| 20260904214602 | 21 | 170 | 1.6 | 9.7 | 0.00 | 0.86 | 0.38 | 54 | 1015.6 |
| 20260904214501 | 21 | 170 | 1.6 | 9.7 | 0.00 | 0.86 | 0.38 | 54 | 1015.7 |
| 20260904213104 | 21 | 16 | 1.6 | 8.0 | 0.00 | 0.86 | 0.38 | 56 | 1015.7 |
| 20260904211601 | 20 | 98 | 1.6 | 6.4 | 0.00 | 0.86 | 0.38 | 58 | 1015.6 |
| 20260904210100 | 20 | 154 | 3.2 | 16.1 | 0.00 | 0.86 | 0.38 | 59 | 1015.8 |
| 20260904210002 | 20 | 352 | 4.8 | 16.1 | 0.00 | 0.86 | 0.38 | 62 | 1015.8 |
| 20260904204503 | 19 | 32 | 1.6 | 6.4 | 0.00 | 0.86 | 0.38 | 64 | 1015.7 |
| 20260904203001 | 20 | 194 | 1.6 | 9.7 | 0.00 | 0.86 | 0.38 | 62 | 1015.8 |
| 20260904201501 | 18 | 15 | 1.6 | 6.4 | 0.00 | 0.86 | 0.38 | 68 | 1015.6 |